Weather History for Rome, GA

Change the Weather History Date:

Tuesday, September 4, 2012

  Actual Average Record
Temperature  
Mean Temperature 77 °F 76 °F  
Max Temperature 81 °F 87 °F 100 °F (2002)
Min Temperature 73 °F 64 °F 55 °F (1997)
Degree Days  
Heating Degree Days 0 0  
Month to date heating degree days 0  
Since 1 July heating degree days 0  
Cooling Degree Days 12 11  
Month to date cooling degree days 44  
Year to date cooling degree days 1410  
Growing Degree Days 27 (Base 50)    
Moisture  
Dew Point 73 °F    
Average Humidity 94    
Maximum Humidity 100    
Minimum Humidity 79    
Precipitation  
Precipitation 0.00 in 0.08 in 0.31 in (2001)
Month to date precipitation 0.35  
Year to date precipitation 35.77  
Sea Level Pressure  
Sea Level Pressure 29.90 in    
Wind  
Wind Speed 2 mph (South)    
Max Wind Speed 9 mph    
Max Gust Speed -    
Visibility 8 miles    
Events Rain    
T = Trace of Precipitation, MM = Missing Value Source: NWS Daily Summary

Daily Weather History Graph

Daily Weather History Graph

Search for Another Location

Airport:

Trip Planner

Search our weather history database for the weather conditions in past years. The results will help you decide how hot, cold, wet, or windy it might be!

Date:

Astronomy

Sep. 04, 2012 Rise Set
Actual Time 7:16 AM EDT 8:01 PM EDT
Civil Twilight 6:50 AM EDT 8:27 PM EDT
Nautical Twilight 6:20 AM EDT 8:57 PM EDT
Astronomical Twilight 5:49 AM EDT 9:28 PM EDT
Moon 10:09 PM EDT (9/4) 11:08 AM EDT (9/4)
Length of Visible Light 13h 36m
Length of Day
12h 45m
Waning Gibbous, 84% of the Moon is Illuminated
Sep 4
Waning Gibbous
Sep 8
Last Quarter
Sep 15
New
Sep 22
First Quarter
Sep 29
Full

Hourly Weather History & Observations

Time (EDT) Temp. Heat Index Dew Point Humidity Pressure Visibility Wind Dir Wind Speed Gust Speed Precip Events Conditions
12:02 AM 73.4 °F - 73.4 °F 100% 29.92 in 1.8 mi Calm Calm - 0.08 in Rain Rain
12:10 AM 73.4 °F - 73.4 °F 100% 29.92 in 2.5 mi WSW 3.5 mph - 0.13 in Rain Rain
12:20 AM 73.4 °F - 73.4 °F 100% 29.92 in 4.0 mi Calm Calm - 0.15 in Rain Light Rain
12:33 AM 73.4 °F - 73.4 °F 100% 29.92 in 4.0 mi Calm Calm - N/A Rain Light Rain
12:45 AM 73.4 °F - 73.4 °F 100% 29.92 in 2.5 mi Calm Calm - 0.23 in Rain Rain
12:53 AM 73.9 °F - 73.9 °F 100% 29.89 in 4.0 mi Calm Calm - 0.24 in Rain Light Rain
1:01 AM 73.4 °F - 73.4 °F 100% 29.92 in 6.0 mi Calm Calm - 0.01 in Rain Light Rain
1:21 AM 73.4 °F - 73.4 °F 100% 29.91 in 10.0 mi South 6.9 mph - 0.01 in Rain Light Rain
1:36 AM 73.4 °F - 73.4 °F 100% 29.91 in 10.0 mi SSW 4.6 mph - 0.01 in   Overcast
1:53 AM 73.0 °F - 73.0 °F 100% 29.88 in 10.0 mi SSW 4.6 mph - 0.01 in   Overcast
2:28 AM 73.4 °F - 73.4 °F 100% 29.90 in 10.0 mi SSW 3.5 mph - N/A   Overcast
2:53 AM 73.0 °F - 73.0 °F 100% 29.88 in 10.0 mi Calm Calm - N/A   Overcast
3:02 AM 73.4 °F - 73.4 °F 100% 29.90 in 10.0 mi Calm Calm - N/A   Overcast
3:34 AM 73.4 °F - 73.4 °F 100% 29.90 in 8.0 mi Calm Calm - N/A   Overcast
3:53 AM 73.0 °F - 73.0 °F 100% 29.88 in 10.0 mi Calm Calm - N/A   Overcast
4:53 AM 73.0 °F - 73.0 °F 100% 29.87 in 10.0 mi Calm Calm - 0.00 in   Overcast
5:53 AM 73.0 °F - 73.0 °F 100% 29.87 in 8.0 mi South 3.5 mph - N/A   Overcast
6:53 AM 73.0 °F - 73.0 °F 100% 29.88 in 8.0 mi South 3.5 mph - N/A   Overcast
7:53 AM 73.0 °F - 73.0 °F 100% 29.90 in 2.5 mi SSW 3.5 mph - N/A   Overcast
8:34 AM 73.4 °F - 73.4 °F 100% 29.92 in 4.0 mi SSW 3.5 mph - N/A   Overcast
8:42 AM 73.4 °F - 73.4 °F 100% 29.92 in 5.0 mi Calm Calm - N/A   Overcast
8:53 AM 73.0 °F - 73.0 °F 100% 29.90 in 5.0 mi South 3.5 mph - N/A   Overcast
8:59 AM 73.4 °F - 73.4 °F 100% 29.92 in 2.5 mi South 4.6 mph - N/A   Overcast
9:32 AM 73.4 °F - 73.4 °F 100% 29.92 in 3.0 mi SSE 4.6 mph - N/A   Overcast
9:39 AM 73.4 °F - 73.4 °F 100% 29.92 in 2.0 mi South 3.5 mph - N/A   Overcast
9:53 AM 73.0 °F - 73.0 °F 100% 29.90 in 2.5 mi South 4.6 mph - N/A   Overcast
10:00 AM 73.4 °F - 73.4 °F 100% 29.93 in 3.0 mi South 3.5 mph - N/A   Overcast
10:20 AM 73.4 °F - 73.4 °F 100% 29.93 in 4.0 mi SSW 3.5 mph - N/A   Overcast
10:39 AM 75.2 °F - 73.4 °F 94% 29.93 in 9.0 mi South 3.5 mph - N/A   Overcast
10:53 AM 75.0 °F - 73.0 °F 94% 29.91 in 10.0 mi South 4.6 mph - N/A   Overcast
11:51 AM 77.0 °F - 73.4 °F 89% 29.94 in 10.0 mi Calm Calm - N/A   Overcast
11:53 AM 77.0 °F - 73.0 °F 88% 29.91 in 10.0 mi Calm Calm - N/A   Overcast
12:22 PM 77.0 °F - 73.4 °F 89% 29.94 in 10.0 mi Calm Calm - N/A   Overcast
12:42 PM 77.0 °F - 73.4 °F 89% 29.94 in 10.0 mi Calm Calm - N/A   Overcast
12:53 PM 77.0 °F - 73.0 °F 88% 29.91 in 10.0 mi Calm Calm - N/A   Overcast
1:53 PM 79.0 °F - 73.0 °F 82% 29.90 in 10.0 mi Calm Calm - N/A   Overcast
2:38 PM 80.6 °F 85.4 °F 73.4 °F 79% 29.91 in 10.0 mi Variable 3.5 mph - N/A   Overcast
2:53 PM 80.1 °F 84.5 °F 73.9 °F 81% 29.88 in 10.0 mi ESE 3.5 mph - N/A   Overcast
3:33 PM 80.6 °F 85.4 °F 73.4 °F 79% 29.90 in 10.0 mi SSE 3.5 mph - N/A   Overcast
3:45 PM 80.6 °F 85.4 °F 73.4 °F 79% 29.90 in 10.0 mi SSE 3.5 mph - N/A   Overcast
3:53 PM 80.6 °F 85.4 °F 73.4 °F 79% 29.90 in 10.0 mi South 4.6 mph - N/A   Overcast
4:13 PM 80.6 °F 85.4 °F 73.4 °F 79% 29.89 in 10.0 mi SE 4.6 mph - N/A   Overcast
4:53 PM 81.0 °F 86.2 °F 73.9 °F 79% 29.86 in 10.0 mi SSE 6.9 mph - N/A   Overcast
5:03 PM 80.6 °F 85.4 °F 73.4 °F 79% 29.89 in 10.0 mi SSE 5.8 mph - N/A   Overcast
5:53 PM 79.0 °F - 73.9 °F 84% 29.87 in 10.0 mi SSE 6.9 mph - N/A   Overcast
6:02 PM 78.8 °F - 73.4 °F 83% 29.89 in 10.0 mi SSE 9.2 mph - N/A   Overcast
6:53 PM 79.0 °F - 73.9 °F 84% 29.86 in 10.0 mi ESE 5.8 mph - N/A   Mostly Cloudy
7:10 PM 78.8 °F - 73.4 °F 83% 29.89 in 10.0 mi Calm Calm - N/A   Scattered Clouds
7:53 PM 77.0 °F - 73.9 °F 90% 29.86 in 10.0 mi SSE 3.5 mph - N/A   Mostly Cloudy
8:20 PM 75.2 °F - 73.4 °F 94% 29.89 in 9.0 mi Calm Calm - N/A   Mostly Cloudy
8:53 PM 75.9 °F - 73.9 °F 94% 29.88 in 8.0 mi Calm Calm - 0.00 in   Overcast
9:53 PM 75.0 °F - 73.9 °F 96% 29.89 in 7.0 mi SE 3.5 mph - N/A   Mostly Cloudy
10:11 PM 75.2 °F - 73.4 °F 94% 29.92 in 8.0 mi SE 3.5 mph - N/A   Mostly Cloudy
10:53 PM 75.0 °F - 73.9 °F 96% 29.90 in 9.0 mi Calm Calm - N/A   Overcast
11:50 PM 75.2 °F - 73.4 °F 94% 29.93 in 10.0 mi Calm Calm - N/A   Overcast
11:53 PM 75.0 °F - 73.9 °F 96% 29.90 in 10.0 mi Calm Calm - N/A   Overcast